Погода в Монклове

Мексика     26°54′47″N   101°25′09″W
темп.,
°C
ветер,
м/с
пор.,
м/с
влажн.,
%
обл.,
%
осадки,
мм/ч
давл.,
гПа
погр.,
м
14 мая, пт
пт1401:00+21св1270100 0.0 102081
04:00+20ссз1171100 0.0 101944
07:00+19с1172100 0.0 102026
10:00+21с226425 0.0 1020704
13:00+25всв125142 0.0 10181460
16:00+29всв644283 0.0 10152011
19:00+28в664588 0.1 10131732
22:00+25вюв5655100 0.0 1014754
15 мая, сб
сб1501:00+24ююв1260100 0.0 1014212
04:00+23сз116986 0.0 101432
07:00+22зюз127437 0.0 101555
10:00+24сз116229 0.0 1015961
13:00+29ссв324712 0.0 10131526
16:00+32ссв423836 0.0 10091847
19:00+32всв54363 0.0 10071926
22:00+27юз34543 2.0 1009434
16 мая, вс
вс1601:00+26в23621 2.0 1011257
04:00+25зсз23706 0.0 1010129
07:00+24юз237566 0.0 1011214
10:00+26сз12665 0.0 1012690
13:00+32с22433 0.0 10101126
16:00+36св55280 0.0 10062019
19:00+32ююв65380 0.0 1006529
22:00+27ююз56490 0.0 1008258
17 мая, пн
пн1701:00+26ююв33480 0.0 100865
04:00+25юв115090 0.0 100711
07:00+23с015892 0.0 100911
10:00+27всв214478 0.0 1010471
13:00+33св22290 0.0 10071078
16:00+38ссв54194 0.0 10041900
19:00+38вюв98158 0.0 10021873
22:00+33юв915320 0.0 1003619
18 мая, вт
вт1801:00+30св454231 0.0 100583
04:00+26ссз546895 0.0 1006273
07:00+24ссз12770 0.0 1007177
10:00+27з12600 0.0 1007576
13:00+35ссв24220 0.0 10062052
16:00+39з6750 0.0 10024409
19:00+39зюз2640 0.0 10004382
22:00+31юв0080 0.0 100311